Regional Weather Roundup
Issued by NWS Cleveland, OH

Home | Current Version | Previous Version | Graphics & Text | Print | Product List | Glossary On
Versions: 1 2 3 4 5 6 7 8 9 10 11 12 13 14 15 16 17 18 19 20 21 22 23 24 25 26 27 28 29 30 31 32 33 34 35 36 37 38 39 40 41 42 43 44 45 46 47 48 49 50
000
ASUS41 KCLE 272010
RWRCLE
OHIO REGIONAL WEATHER ROUNDUP
NATIONAL WEATHER SERVICE WILMINGTON, OH
400 PM EDT THU AUG 27 2015

NOTE: "FAIR" INDICATES FEW OR NO CLOUDS BELOW 12,000 FEET WITH NO
SIGNIFICANT WEATHER AND/OR OBSTRUCTIONS TO VISIBILITY.

OHZ001>008-015>018-024>027-034-035-043-044-272100-
   NORTHWEST OHIO

CITY           SKY/WX    TMP DP  RH WIND       PRES   REMARKS
DEFIANCE       PTSUNNY   72  54  53 SE6       30.16F
FINDLAY        CLOUDY    74  54  49 VRB3      30.14F
TOLEDO EXPRESS CLOUDY    70  54  56 CALM      30.16F
TOLEDO EXEC    CLOUDY    70  54  56 VRB6      30.17S
LIMA           CLOUDY    71  53  52 CALM      30.15F
$$

OHZ009>014-019>023-028>033-038-089-272100-
   NORTHEAST OHIO

CITY           SKY/WX    TMP DP  RH WIND       PRES   REMARKS
CLE-HOPKINS    MOSUNNY   70  55  59 N8        30.17F
CLE-LAKEFRONT  MOSUNNY   70  56  61 N8        30.15F
CUY CO. ARPT   PTSUNNY   70  57  64 N13       30.17F
LORAIN-ELYRIA  MOSUNNY   70  54  56 VRB3      30.16F
ASHTABULA      CLOUDY    66  56  70 NW8       30.17F
AKRON-CANTON   PTSUNNY   70  54  56 VRB3      30.15F
WOOSTER        PTSUNNY   70  54  56 NW5       30.15F
MANSFIELD      PTSUNNY   74  56  53 N9        30.15F
YOUNGSTOWN     PTSUNNY   69  54  58 NW8       30.15F
$$

OHZ042-051>053-060>062-070>072-077>081-272100-
  SOUTHWEST OHIO

CITY           SKY/WX    TMP DP  RH WIND       PRES   REMARKS
CINC-COVINGTON PTSUNNY   74  54  49 NE9       30.14F
CINC-LUNKEN    PTSUNNY   75  56  51 N3        30.14F
HAMILTON       PTSUNNY   78  56  46 CALM      30.15S
DAYTON         PTSUNNY   73  54  51 E5        30.16S
WRIGHT-PAT AFB MOSUNNY   74  55  52 SE3       30.14F
DAYTON GENERAL CLOUDY    73  55  53 E5        30.14F
WILMINGTON     MOSUNNY   73  55  53 VRB7      30.14F
$$

OHZ036-037-039>041-045>050-054>059-063>069-073>076-082>088-272100-
  CENTRAL AND SOUTHEAST OHIO

CITY           SKY/WX    TMP DP  RH WIND       PRES   REMARKS
COLUMBUS       MOSUNNY   74  54  49 VRB3      30.13F
OSU AIRPORT    MOSUNNY   73  53  49 NE3       30.13F
BOLTON FIELD   PTSUNNY   72  55  56 S3        30.14F
RICKENBACK AFB MOSUNNY   74  54  50 E6        30.13F
NEWARK         CLOUDY    74  53  48 NW3       30.13F
MARION         MOSUNNY   74  54  49 E6        30.14F
LANCASTER      PTSUNNY   75  53  46 CALM      30.14F
ZANESVILLE     SUNNY     78  51  38 VRB6      30.13F
NEW PHILLY     CLOUDY    73  55  53 VRB7      30.14F
$$



USA.gov is the U.S. government's official web portal to all federal, state and local government web resources and services.